Home   Weather   Elista   Past weeks
Flag for Russia

Past Weather in Elista, Russia — Yesterday and Last 2 Weeks

Now
73 °F

Sunny.


Feels Like: 76 °F
Forecast: 75 / 51 °F
Wind: 13 mph from Northeast

Location: Elista Airport

Current Time: May 20, 2019 at 5:50:59 pm

Latest Report: May 20, 2019 at 4:30 pm


Visibility: 10 mi

Pressure: 30.04 "Hg

Humidity: 29%

Dew Point: 39 °F

Location of ElistaLocation

Past Weather in Elista — Graph

°F

Elista Temperature Yesterday

Maximum temperature yesterday: 79 °F (at 1:30 pm)
Minimum temperature yesterday: 57 °F (at 3:30 am)
Average temperature yesterday: 69 °F

High & Low Weather Summary for the Past Weeks

 TemperatureHumidityPressure
High86 °F (May 17, 2:00 pm)100% (May 6, 2:30 am)30.04 "Hg (May 6, 2:30 am)
Low46 °F (May 11, 4:00 am)25% (May 20, 3:00 pm)29.71 "Hg (May 9, 2:00 am)
Average66 °F69%29.92 "Hg
* Reported May 5 4:00 pm — May 20 4:30 pm, Elista. Weather by CustomWeather, © 2019

Note: Actual official high and low records may vary slightly from our data, if they occured in-between our weather recording intervals... More about our weather records

Advertising

Elista Weather History for the Previous 24 Hours

Scroll right to see more
 ConditionsComfort  
Time TempWeatherWind HumidityBarometerVisibility
4:30 pm
Mon, May 20
73 °FSunny.13 mph29%30.04 "Hg10 mi
4:00 pm75 °FSunny.13 mph27%30.04 "Hg10 mi
3:30 pm75 °FPassing clouds.10 mph27%30.04 "HgN/A
3:00 pm75 °FSunny.10 mph25%30.04 "Hg10 mi
2:30 pm75 °FPassing clouds.10 mph27%30.04 "HgN/A
2:00 pm75 °FPassing clouds.13 mph29%30.04 "HgN/A
1:30 pm75 °FPassing clouds.13 mph31%30.04 "HgN/A
1:00 pm75 °FPassing clouds.8 mph29%30.04 "HgN/A
12:30 pm75 °FPassing clouds.10 mph29%30.04 "HgN/A
12:00 pm75 °FPassing clouds.8 mph29%30.04 "HgN/A
11:30 am73 °FPassing clouds.8 mph31%30.04 "HgN/A
11:00 am73 °FPassing clouds.8 mph31%30.04 "HgN/A
10:30 am73 °FSunny.8 mph31%30.04 "Hg10 mi
10:00 am72 °FSunny.8 mph36%30.04 "Hg10 mi
9:30 am72 °FPassing clouds.10 mph36%30.01 "HgN/A
9:00 am72 °FSunny.10 mph38%30.01 "Hg10 mi
8:30 am70 °FSunny.8 mph40%30.01 "Hg10 mi
8:00 am68 °FSunny.8 mph40%29.98 "Hg10 mi
7:30 am66 °FSunny.8 mph49%29.98 "HgN/A
7:00 am64 °FSunny.6 mph60%29.98 "HgN/A
6:30 am64 °FSunny.6 mph49%29.98 "HgN/A
6:00 am61 °FSunny.6 mph59%29.98 "HgN/A
5:30 am59 °FSunny.6 mph63%29.98 "HgN/A
5:00 am57 °FSunny.3 mph63%29.95 "HgN/A
4:30 am57 °FSunny.3 mph59%29.95 "HgN/A
4:00 am55 °FClear.3 mph63%29.95 "HgN/A
3:30 am59 °FClear.8 mph55%29.95 "HgN/A
3:00 am59 °FClear.6 mph55%29.95 "HgN/A
2:30 am59 °FClear.8 mph55%29.95 "HgN/A
2:00 am63 °FClear.3 mph45%29.92 "HgN/A
1:30 am63 °FClear.3 mph49%29.92 "HgN/A
1:00 am63 °FClear.3 mph49%29.92 "HgN/A
12:30 am64 °FClear.3 mph46%29.92 "HgN/A
12:00 am64 °FClear.3 mph49%29.92 "HgN/A
11:30 pm
Sun, May 19
63 °FClear.6 mph59%29.89 "HgN/A
11:00 pm64 °FClear.3 mph56%29.92 "HgN/A
10:30 pm64 °FClear.1 mph60%29.92 "HgN/A
10:00 pm68 °FClear.3 mph43%29.92 "HgN/A
9:30 pm70 °FClear.3 mph40%29.92 "HgN/A
9:00 pm68 °FClear.1 mph53%29.92 "HgN/A
8:30 pm70 °FClear.3 mph46%29.92 "Hg10 mi
8:00 pm70 °FClear.1 mph50%29.92 "Hg10 mi
7:30 pm72 °FSunny.3 mph53%29.89 "Hg10 mi
7:00 pm73 °FSunny.3 mph50%29.89 "Hg10 mi
6:30 pm75 °FSunny.3 mph44%29.89 "Hg10 mi
6:00 pm75 °FSunny.3 mph44%29.86 "Hg10 mi
5:30 pm75 °FSunny.6 mph39%29.86 "Hg10 mi
5:00 pm77 °FPassing clouds.8 mph32%29.86 "HgN/A
Weather by CustomWeather, © 2019

See weather overview